H1 CPF 2 NER 2025 8 5 9 217 01 glonass142 H2 2001801 9142 45358 2025 8 5 0 0 0 2025 8 8 23 45 0 900 1 1 0 0 0 1 H9 10 0 60892 0.00000 0 17033256.348 10549805.651 15820764.674 10 0 60892 900.00000 0 14983742.039 10167862.742 17994743.937 10 0 60892 1800.00000 0 12666554.905 9919390.528 19820056.326 10 0 60892 2700.00000 0 10136539.890 9839714.504 21261321.325 10 0 60892 3600.00000 0 7455719.258 9953920.875 22290576.748 10 0 60892 4500.00000 0 4690941.631 10275688.030 22887818.117 10 0 60892 5400.00000 0 1911337.509 10806611.039 23041387.135 10 0 60892 6300.00000 0 -814314.723 11536048.058 22748201.917 10 0 60892 7200.00000 0 -3420204.521 12441496.038 22013824.328 10 0 60892 8100.00000 0 -5845979.472 13489481.193 20852362.596 10 0 60892 9000.00000 0 -8039007.905 14636928.353 19286210.187 10 0 60892 9900.00000 0 -9956320.631 15832953.219 17345624.869 10 0 60892 10800.00000 0 -11566151.519 17021003.692 15068154.840 10 0 60892 11700.00000 0 -12849013.027 18141261.461 12497921.727 10 0 60892 12600.00000 0 -13798261.770 19133203.582 9684773.236 10 0 60892 13500.00000 0 -14420130.471 19938216.501 6683320.969 10 0 60892 14400.00000 0 -14733224.902 20502152.131 3551881.543 10 0 60892 15300.00000 0 -14767507.060 20777717.451 351341.473 10 0 60892 16200.00000 0 -14562807.647 20726595.647 -2856031.820 10 0 60892 17100.00000 0 -14166931.155 20321207.809 -6007809.117 10 0 60892 18000.00000 0 -13633434.348 19546039.245 -9042623.884 10 0 60892 18900.00000 0 -13019173.071 18398472.819 -11901377.208 10 0 60892 19800.00000 0 -12381722.338 16889092.764 -14528398.560 10 0 60892 20700.00000 0 -11776780.059 15041444.891 -16872538.674 10 0 60892 21600.00000 0 -11255665.442 12891262.401 -18888172.421 10 0 60892 22500.00000 0 -10863018.884 10485189.131 -20536091.535 10 0 60892 23400.00000 0 -10634801.382 7879053.447 -21784269.509 10 0 60892 24300.00000 0 -10596678.487 5135764.877 -22608483.772 10 0 60892 25200.00000 0 -10762857.234 2322921.351 -22992783.319 10 0 60892 26100.00000 0 -11135425.068 -489773.118 -22929793.145 10 0 60892 27000.00000 0 -11704218.326 -3233172.749 -22420850.163 10 0 60892 27900.00000 0 -12447225.377 -5841325.679 -21475968.616 10 0 60892 28800.00000 0 -13331506.880 -8253971.764 -20113636.271 10 0 60892 29700.00000 0 -14314593.813 -10418799.410 -18360445.983 10 0 60892 30600.00000 0 -15346303.876 -12293368.529 -16250570.253 10 0 60892 31500.00000 0 -16370899.286 -13846620.969 -13825089.470 10 0 60892 32400.00000 0 -17329494.761 -15059917.112 -11131187.269 10 0 60892 33300.00000 0 -18162614.011 -15927557.161 -8221228.893 10 0 60892 34200.00000 0 -18812787.007 -16456767.431 -5151740.847 10 0 60892 35100.00000 0 -19227078.605 -16667154.062 -1982311.815 10 0 60892 36000.00000 0 -19359442.061 -16589648.967 1225563.648 10 0 60892 36900.00000 0 -19172798.661 -16264994.014 4409676.044 10 0 60892 37800.00000 0 -18640756.050 -15741828.444 7508303.418 10 0 60892 38700.00000 0 -17748893.216 -15074461.012 10461402.258 10 0 60892 39600.00000 0 -16495558.202 -14320421.125 13211764.014 10 0 60892 40500.00000 0 -14892144.880 -13537892.237 15706115.396 10 0 60892 41400.00000 0 -12962836.817 -12783135.294 17896141.833 10 0 60892 42300.00000 0 -10743828.272 -12108010.184 19739415.085 10 0 60892 43200.00000 0 -8282053.852 -11557698.788 21200207.949 10 0 60892 44100.00000 0 -5633478.466 -11168724.676 22250181.171 10 0 60892 45000.00000 0 -2861017.241 -10967352.098 22868929.959 10 0 60892 45900.00000 0 -32170.145 -10968431.201 23044380.066 10 0 60892 46800.00000 0 2783532.246 -11174737.936 22773025.940 10 0 60892 47700.00000 0 5517167.544 -11576836.769 22060006.190 10 0 60892 48600.00000 0 8103036.950 -12153472.683 20919014.342 10 0 60892 49500.00000 0 10481150.057 -12872477.037 19372045.763 10 0 60892 50400.00000 0 12599476.763 -13692150.453 17448984.493 10 0 60892 51300.00000 0 14415873.286 -14563065.813 15187036.720 10 0 60892 52200.00000 0 15899602.377 -15430216.616 12630020.552 10 0 60892 53100.00000 0 17032384.289 -16235421.039 9827524.728 10 0 60892 54000.00000 0 17808934.459 -16919880.772 6833951.646 10 0 60892 54900.00000 0 18236965.168 -17426786.598 3707462.735 10 0 60892 55800.00000 0 18336650.997 -17703860.133 508846.544 10 0 60892 56700.00000 0 18139580.585 -17705723.347 -2699668.208 10 0 60892 57600.00000 0 17687239.149 -17395994.325 -5855630.869 10 0 60892 58500.00000 0 17029086.305 -16749019.114 -8897593.709 10 0 60892 59400.00000 0 16220311.188 -15751164.777 -11766318.446 10 0 60892 60300.00000 0 15319360.678 -14401617.408 -14405939.784 10 0 60892 61200.00000 0 14385346.331 -12712649.950 -16765062.197 10 0 60892 62100.00000 0 13475440.717 -10709347.311 -18797767.733 10 0 60892 63000.00000 0 12642374.091 -8428799.328 -20464514.585 10 0 60892 63900.00000 0 11932137.938 -5918794.797 -21732908.620 10 0 60892 64800.00000 0 11381992.732 -3236070.852 -22578332.836 10 0 60892 65700.00000 0 11018864.094 -444190.634 -22984422.772 10 0 60892 66600.00000 0 10858194.761 2388862.258 -22943379.073 10 0 60892 67500.00000 0 10903300.234 5193272.366 -22456111.714 10 0 60892 68400.00000 0 11145254.546 7900056.434 -21532213.738 10 0 60892 69300.00000 0 11563310.059 10443692.373 -20189765.650 10 0 60892 70200.00000 0 12125832.691 12764604.320 -18454974.853 10 0 60892 71100.00000 0 12791712.229 14811401.202 -16361657.643 10 0 60892 72000.00000 0 13512187.467 16542776.656 -13950574.288 10 0 60892 72900.00000 0 14233008.498 17928992.483 -11268630.469 10 0 60892 73800.00000 0 14896844.473 18952885.373 -8367960.939 10 0 60892 74700.00000 0 15445834.898 19610356.552 -5304913.502 10 0 60892 75600.00000 0 15824176.597 19910325.667 -2138953.258 10 0 60892 76500.00000 0 15980637.266 19874152.700 1068491.391 10 0 60892 77400.00000 0 15870889.535 19534553.709 4255218.495 10 0 60892 78300.00000 0 15459567.341 18934057.412 7359454.989 10 0 60892 79200.00000 0 14721958.186 18123068.641 10321048.608 10 0 60892 80100.00000 0 13645260.017 17157620.618 13082626.553 10 0 60892 81000.00000 0 12229349.802 16096910.902 15590698.958 10 0 60892 81900.00000 0 10487031.151 15000724.445 17796686.499 10 0 60892 82800.00000 0 8443749.968 13926851.586 19657853.046 10 0 60892 83700.00000 0 6136788.990 12928608.743 21138126.217 10 0 60892 84600.00000 0 3613973.528 12052565.037 22208790.818 10 0 60892 85500.00000 0 931940.733 11336569.409 22849042.478 10 0 60893 0.00000 0 -1845957.148 10808160.333 23046391.285 10 0 60893 900.00000 0 -4652031.816 10483424.087 22796907.872 10 0 60893 1800.00000 0 -7416819.620 10366350.007 22105306.853 10 0 60893 2700.00000 0 -10071724.292 10448709.009 20984865.834 10 0 60893 3600.00000 0 -12551629.803 10710461.794 19457180.351 10 0 60893 4500.00000 0 -14797377.393 11120680.024 17551758.504 10 0 60893 5400.00000 0 -16758004.287 11638942.743 15305461.860 10 0 60893 6300.00000 0 -18392651.223 12217150.172 12761802.101 10 0 60893 7200.00000 0 -19672059.257 12801679.212 9970105.894 10 0 60893 8100.00000 0 -20579593.034 13335790.184 6984563.270 10 0 60893 9000.00000 0 -21111747.356 13762183.217 3863177.335 10 0 60893 9900.00000 0 -21278115.392 14025595.862 666635.630 10 0 60893 10800.00000 0 -21100819.624 14075331.185 -2542874.710 10 0 60893 11700.00000 0 -20613429.446 13867608.172 -5702884.313 10 0 60893 12600.00000 0 -19859411.277 13367633.402 -8751866.779 10 0 60893 13500.00000 0 -18890177.086 12551304.709 -11630446.766 10 0 60893 14400.00000 0 -17762814.462 11406473.016 -14282566.291 10 0 60893 15300.00000 0 -16537595.014 9933707.449 -16656585.372 10 0 60893 16200.00000 0 -15275367.245 8146529.969 -18706294.725 10 0 60893 17100.00000 0 -14034944.858 6071108.419 -20391820.155 10 0 60893 18000.00000 0 -12870601.369 3745419.942 -21680400.694 10 0 60893 18900.00000 0 -11829777.109 1217919.173 -22547025.339 10 0 60893 19800.00000 0 -10951095.285 -1454233.534 -22974916.237 10 0 60893 20700.00000 0 -10262770.408 -4207310.046 -22955849.382 10 0 60893 21600.00000 0 -9781475.438 -6973429.568 -22490307.157 10 0 60893 22500.00000 0 -9511714.411 -9683150.479 -21587460.417 10 0 60893 23400.00000 0 -9445725.808 -12268131.163 -20264981.079 10 0 60893 24300.00000 0 -9563919.461 -14663749.486 -18548689.483 10 0 60893 25200.00000 0 -9835827.295 -16811572.433 -16472043.854 10 0 60893 26100.00000 0 -10221526.603 -18661573.863 -14075482.269 10 0 60893 27000.00000 0 -10673474.726 -20174008.926 -11405630.272 10 0 60893 27900.00000 0 -11138676.829 -21320868.338 -8514389.864 10 0 60893 28800.00000 0 -11561094.583 -22086853.113 -5457927.865 10 0 60893 29700.00000 0 -11884193.553 -22469830.625 -2295583.550 10 0 60893 30600.00000 0 -12053521.471 -22480754.452 911283.070 10 0 60893 31500.00000 0 -12019208.351 -22143052.898 4100479.827 10 0 60893 32400.00000 0 -11738283.037 -21491513.323 7210184.748 10 0 60893 33300.00000 0 -11176708.485 -20570710.152 10180139.042 10 0 60893 34200.00000 0 -10311050.108 -19433043.404 12952807.879 10 0 60893 35100.00000 0 -9129706.888 -18136470.471 15474486.976 10 0 60893 36000.00000 0 -7633653.183 -16742026.282 17696334.312 10 0 60893 36900.00000 0 -5836659.573 -15311235.578 19575307.763 10 0 60893 37800.00000 0 -3764982.573 -13903525.085 21074991.428 10 0 60893 38700.00000 0 -1456534.928 -12573743.131 22166295.553 10 0 60893 39600.00000 0 1040430.471 -11369889.593 22828017.231 10 0 60893 40500.00000 0 3669070.027 -10331150.257 23047251.581 10 0 60893 41400.00000 0 6366061.506 -9486317.049 22819645.692 10 0 60893 42300.00000 0 9063992.852 -8852659.705 22149490.248 10 0 60893 43200.00000 0 11693930.483 -8435295.881 21049646.594 10 0 60893 44100.00000 0 14188062.004 -8227086.143 19541309.753 10 0 60893 45000.00000 0 16482304.784 -8209058.596 17653610.899 10 0 60893 45900.00000 0 18518772.808 -8351345.857 15423065.659 10 0 60893 46800.00000 0 20247999.496 -8614595.581 12892877.630 10 0 60893 47700.00000 0 21630823.813 -8951795.729 10112109.419 10 0 60893 48600.00000 0 22639860.540 -9310437.967 7134736.342 10 0 60893 49500.00000 0 23260492.688 -9634927.922 4018600.527 10 0 60893 50400.00000 0 23491343.799 -9869140.100 824285.585 10 0 60893 51300.00000 0 23344209.760 -9959008.629 -2386066.041 10 0 60893 52200.00000 0 22843452.646 -9855043.061 -5549969.445 10 0 60893 53100.00000 0 22024881.962 -9514661.241 -8605822.705 10 0 60893 54000.00000 0 20934170.662 -8904238.851 -11494116.447 10 0 60893 54900.00000 0 19624873.176 -8000787.131 -14158602.813 10 0 60893 55800.00000 0 18156129.722 -6793186.150 -16547399.929 10 0 60893 56700.00000 0 16590154.539 -5282919.924 -18614009.454 10 0 60893 57600.00000 0 14989614.700 -3484281.023 -20318226.781 10 0 60893 58500.00000 0 13415010.648 -1424034.876 -21626925.763 10 0 60893 59400.00000 0 11922169.157 859442.980 -22514702.707 10 0 60893 60300.00000 0 10559954.313 3317521.207 -22964367.321 10 0 60893 61200.00000 0 9368292.538 5893102.269 -22967271.506 10 0 60893 62100.00000 0 8376593.979 8522772.836 -22523470.207 10 0 60893 63000.00000 0 7602635.603 11139225.489 -21641711.819 10 0 60893 63900.00000 0 7051951.649 13673850.923 -20339258.984 10 0 60893 64800.00000 0 6717755.535 16059392.905 -18641543.869 10 0 60893 65700.00000 0 6581394.889 18232555.754 -16581665.111 10 0 60893 66600.00000 0 6613318.947 20136456.144 -14199736.680 10 0 60893 67500.00000 0 6774516.021 21722817.810 -11542101.683 10 0 60893 68400.00000 0 7018359.113 22953818.501 -8660426.730 10 0 60893 69300.00000 0 7292780.671 23803513.078 -5610694.719 10 0 60893 70200.00000 0 7542683.822 24258774.615 -2452115.920 10 0 60893 71100.00000 0 7712487.658 24319715.359 754021.387 10 0 60893 72000.00000 0 7748698.660 23999571.300 3945538.212 10 0 60893 72900.00000 0 7602399.578 23324056.506 7060567.041 10 0 60893 73800.00000 0 7231550.645 22330215.356 10038745.788 10 0 60893 74700.00000 0 6603006.159 21064821.605 12822380.592 10 0 60893 75600.00000 0 5694161.391 19582391.816 15357555.502 10 0 60893 76500.00000 0 4494160.391 17942896.519 17595168.245 10 0 60893 77400.00000 0 3004613.528 16209264.646 19491872.806 10 0 60893 78300.00000 0 1239793.939 14444785.083 21010911.522 10 0 60893 79200.00000 0 -773696.427 12710513.080 22122821.441 10 0 60893 80100.00000 0 -2997778.640 11062788.889 22806002.067 10 0 60893 81000.00000 0 -5384232.730 9550971.151 23047134.047 10 0 60893 81900.00000 0 -7876464.030 8215478.666 22841440.943 10 0 60893 82800.00000 0 -10411628.456 7086221.464 22192788.925 10 0 60893 83700.00000 0 -12923030.321 6181486.104 21113621.953 10 0 60893 84600.00000 0 -15342694.800 5507321.478 19624732.865 10 0 60893 85500.00000 0 -17604009.472 5057450.786 17754873.681 10 0 60894 0.00000 0 -19644325.894 4813713.540 15540211.598 10 0 60894 900.00000 0 -21407414.420 4747019.292 13023638.643 10 0 60894 1800.00000 0 -22845667.254 4818773.563 10253950.182 10 0 60894 2700.00000 0 -23921960.998 4982715.769 7284903.314 10 0 60894 3600.00000 0 -24611097.332 5187091.962 4174175.658 10 0 60894 4500.00000 0 -24900761.727 5377070.157 982243.449 10 0 60894 5400.00000 0 -24791958.915 5497295.458 -2228798.845 10 0 60894 6300.00000 0 -24298906.087 5494475.823 -5396453.864 10 0 60894 7200.00000 0 -23448387.787 5319887.617 -8459047.007 10 0 60894 8100.00000 0 -22278599.486 4931693.239 -11356937.448 10 0 60894 9000.00000 0 -20837528.663 4296971.024 -14033689.751 10 0 60894 9900.00000 0 -19180941.986 3393369.765 -16437182.110 10 0 60894 10800.00000 0 -17370064.001 2210316.315 -18520628.723 10 0 60894 11700.00000 0 -15469045.671 749723.810 -20243495.735 10 0 60894 12600.00000 0 -13542329.964 -973830.576 -21572292.525 10 0 60894 13500.00000 0 -11652025.639 -2933466.817 -22481222.935 10 0 60894 14400.00000 0 -9855399.715 -5090887.763 -22952683.970 10 0 60894 15300.00000 0 -8202593.732 -7397752.798 -22977602.730 10 0 60894 16200.00000 0 -6734659.004 -9797482.290 -22555605.584 10 0 60894 17100.00000 0 -5481992.292 -12227417.662 -21695016.964 10 0 60894 18000.00000 0 -4463236.225 -14621247.012 -20412688.413 10 0 60894 18900.00000 0 -3684688.956 -16911595.240 -18733661.842 10 0 60894 19800.00000 0 -3140246.056 -19032670.837 -16690674.025 10 0 60894 20700.00000 0 -2811875.204 -20922859.213 -14323512.429 10 0 60894 21600.00000 0 -2670601.835 -22527154.790 -11678235.292 10 0 60894 22500.00000 0 -2677962.540 -23799330.860 -8806271.381 10 0 60894 23400.00000 0 -2787863.393 -24703757.489 -5763417.299 10 0 60894 24300.00000 0 -2948763.626 -25216792.222 -2608752.025 10 0 60894 25200.00000 0 -3106091.440 -25327686.354 596510.068 10 0 60894 26100.00000 0 -3204789.309 -25038970.105 3790205.229 10 0 60894 27000.00000 0 -3191880.872 -24366301.456 6910422.392 10 0 60894 27900.00000 0 -3018950.867 -23337786.039 9896698.086 10 0 60894 28800.00000 0 -2644433.475 -21992797.291 12691181.276 10 0 60894 29700.00000 0 -2035612.573 -20380346.703 15239746.129 10 0 60894 30600.00000 0 -1170249.652 -18557072.482 17493031.789 10 0 60894 31500.00000 0 -37770.715 -16584930.526 19407389.889 10 0 60894 32400.00000 0 1360038.166 -14528683.601 20945722.330 10 0 60894 33300.00000 0 3008856.611 -12453292.640 22078194.067 10 0 60894 34200.00000 0 4882185.511 -10421317.912 22782807.846 10 0 60894 35100.00000 0 6942219.088 -8490437.186 23045830.371 10 0 60894 36000.00000 0 9141198.916 -6711183.116 22862061.920 10 0 60894 36900.00000 0 11423195.413 -5124993.060 22234944.086 10 0 60894 37800.00000 0 13726244.661 -3762651.738 21176503.101 10 0 60894 38700.00000 0 15984753.444 -2643191.070 19707128.986 10 0 60894 39600.00000 0 18132073.973 -1773292.773 17855193.708 10 0 60894 40500.00000 0 20103142.202 -1147218.611 15656514.436 10 0 60894 41400.00000 0 21837070.472 -747271.250 13153670.960 10 0 60894 42300.00000 0 23279586.384 -544766.527 10395189.278 10 0 60894 43200.00000 0 24385215.700 -501476.375 7434606.211 10 0 60894 44100.00000 0 25119117.170 -571481.532 4329432.508 10 0 60894 45000.00000 0 25458491.403 -703355.603 1140034.408 10 0 60894 45900.00000 0 25393503.523 -842587.565 -2071544.422 10 0 60894 46800.00000 0 24927679.821 -934139.300 -5242797.105 10 0 60894 47700.00000 0 24077760.770 -925028.668 -8311979.312 10 0 60894 48600.00000 0 22873016.043 -766827.197 -11219321.633 10 0 60894 49500.00000 0 21354050.023 -417965.038 -13908203.749 10 0 60894 50400.00000 0 19571148.153 154256.120 -16326266.404 10 0 60894 51300.00000 0 17582233.999 972028.886 -18426438.560 10 0 60894 52200.00000 0 15450523.382 2045855.308 -20167859.091 10 0 60894 53100.00000 0 13241974.674 3373862.567 -21516674.633 10 0 60894 54000.00000 0 11022642.737 4941649.071 -22446698.034 10 0 60894 54900.00000 0 8856047.658 6722668.226 -22939914.810 10 0 60894 55800.00000 0 6800668.526 8679134.304 -22986828.158 10 0 60894 56700.00000 0 4907666.733 10763412.776 -22586636.439 10 0 60894 57600.00000 0 3218933.258 12919837.112 -21747240.296 10 0 60894 58500.00000 0 1765540.481 15086876.152 -20485079.934 10 0 60894 59400.00000 0 566661.739 17199561.473 -18824806.319 10 0 60894 60300.00000 0 -370997.922 19192073.457 -16798793.220 10 0 60894 61200.00000 0 -1053237.931 21000378.060 -14446500.017 10 0 60894 62100.00000 0 -1497865.880 22564804.319 -11813698.046 10 0 60894 63000.00000 0 -1733691.566 23832455.225 -8951575.837 10 0 60894 63900.00000 0 -1799055.606 24759351.587 -5915740.951 10 0 60894 64800.00000 0 -1739956.221 25312219.734 -2765138.028 10 0 60894 65700.00000 0 -1607854.492 25469849.047 439095.695 10 0 60894 66600.00000 0 -1457251.723 25223963.087 3634815.060 10 0 60894 67500.00000 0 -1343141.840 24579568.719 6760068.824 10 0 60894 68400.00000 0 -1318446.743 23554769.480 9754295.440 10 0 60894 69300.00000 0 -1431542.950 22180051.448 12559489.882 10 0 60894 70200.00000 0 -1723983.827 20497071.959 15121319.420 10 0 60894 71100.00000 0 -2228513.290 18557001.875 17390167.370 10 0 60894 72000.00000 0 -2967454.613 16418490.389 19322085.480 10 0 60894 72900.00000 0 -3951542.231 14145336.747 20879637.386 10 0 60894 73800.00000 0 -5179246.090 11803965.038 22032617.765 10 0 60894 74700.00000 0 -6636617.690 9460806.119 22758634.027 10 0 60894 75600.00000 0 -8297665.493 7179694.379 23043539.920 10 0 60894 76500.00000 0 -10125245.559 5019386.260 22881712.914 10 0 60894 77400.00000 0 -12072432.061 3031302.564 22276169.957 10 0 60894 78300.00000 0 -14084312.375 1257587.357 21238518.876 10 0 60894 79200.00000 0 -16100133.854 -270436.581 19788745.596 10 0 60894 80100.00000 0 -18055714.368 -1533351.952 17954840.133 10 0 60894 81000.00000 0 -19886017.448 -2524225.886 15772267.373 10 0 60894 81900.00000 0 -21527785.369 -3248659.562 13283291.510 10 0 60894 82800.00000 0 -22922120.496 -3724306.410 10536166.001 10 0 60894 83700.00000 0 -24016906.711 -3979879.115 7584203.754 10 0 60894 84600.00000 0 -24768968.808 -4053687.249 4484744.874 10 0 60894 85500.00000 0 -25145878.255 -3991767.420 1298041.801 10 0 60895 0.00000 0 -25127328.221 -3845685.384 -1913916.046 10 0 60895 900.00000 0 -24706018.688 -3670103.782 -5088616.424 10 0 60895 1800.00000 0 -23888013.246 -3520219.711 -8164248.355 10 0 60895 2700.00000 0 -22692551.534 -3449181.738 -11080916.947 10 0 60895 3600.00000 0 -21151324.409 -3505597.426 -13781819.799 10 0 60895 4500.00000 0 -19307242.043 -3731238.449 -16214362.640 10 0 60895 5400.00000 0 -17212746.680 -4159041.950 -18331191.215 10 0 60895 6300.00000 0 -14927741.102 -4811494.070 -20091118.644 10 0 60895 7200.00000 0 -12517220.134 -5699465.133 -21459929.784 10 0 60895 8100.00000 0 -10048704.811 -6821546.591 -22411046.864 10 0 60895 9000.00000 0 -7589586.911 -8163918.393 -22926043.675 10 0 60895 9900.00000 0 -5204494.998 -9700752.827 -22994998.710 10 0 60895 10800.00000 0 -2952791.800 -11395138.177 -22616680.993 10 0 60895 11700.00000 0 -886306.817 -13200483.554 -21798565.597 10 0 60895 12600.00000 0 952602.111 -15062346.028 -20556679.242 10 0 60895 13500.00000 0 2532578.693 -16920603.469 -18915279.523 10 0 60895 14400.00000 0 3834327.317 -18711882.073 -16906374.566 10 0 60895 15300.00000 0 4851159.026 -20372136.889 -14569092.891 10 0 60895 16200.00000 0 5589003.595 -21839277.293 -11948916.098 10 0 60895 17100.00000 0 6065889.378 -23055727.692 -9096789.632 10 0 60895 18000.00000 0 6310914.827 -23970816.356 -6068129.207 10 0 60895 18900.00000 0 6362756.848 -24542892.641 -2921742.447 10 0 60895 19800.00000 0 6267780.435 -24741084.345 281313.102 10 0 60895 20700.00000 0 6077830.569 -24546621.953 3478913.279 10 0 60895 21600.00000 0 5847800.496 -23953674.947 6609068.874 10 0 60895 22500.00000 0 5633079.572 -22969665.624 9611122.302 10 0 60895 23400.00000 0 5486988.616 -21615047.744 12426916.390 10 0 60895 24300.00000 0 5458310.927 -19922559.516 15001913.129 10 0 60895 25200.00000 0 5589022.905 -17935982.074 17286241.416 10 0 60895 26100.00000 0 5912319.629 -15708455.022 19235654.282 10 0 60895 27000.00000 0 6451018.374 -13300418.690 20812378.003 10 0 60895 27900.00000 0 7216407.245 -10777267.835 21985837.608 10 0 60895 28800.00000 0 8207587.671 -8206813.283 22733245.525 10 0 60895 29700.00000 0 9411339.103 -5656655.653 23040042.606 10 0 60895 30600.00000 0 10802512.777 -3191578.821 22900183.311 10 0 60895 31500.00000 0 12344939.529 -871070.040 22316259.476 10 0 60895 32400.00000 0 13992815.452 1252931.565 21299459.837 10 0 60895 33300.00000 0 15692509.315 3137965.571 19869365.307 10 0 60895 34200.00000 0 17384717.880 4752580.332 18053582.842 10 0 60895 35100.00000 0 19006880.523 6077399.302 15887223.739 10 0 60895 36000.00000 0 20495753.233 7105679.370 13412235.085 10 0 60895 36900.00000 0 21790034.769 7843337.917 10676596.079 10 0 60895 37800.00000 0 22832934.979 8308447.481 7733393.781 10 0 60895 38700.00000 0 23574577.001 8530219.292 4639795.505 10 0 60895 39600.00000 0 23974131.507 8547518.632 1455937.552 10 0 60895 40500.00000 0 24001591.926 8406975.012 -1756247.961 10 0 60895 41400.00000 0 23639114.526 8160767.656 -4934244.839 10 0 60895 42300.00000 0 22881865.400 7864180.874 -8016178.602 10 0 60895 43200.00000 0 21738337.327 7573033.964 -10942031.375 10 0 60895 44100.00000 0 20230122.060 7341095.867 -13654821.032 10 0 60895 45000.00000 0 18391146.794 7217595.444 -16101720.456 10 0 60895 45900.00000 0 16266406.458 7244934.258 -18235094.142 10 0 60895 46800.00000 0 13910244.903 7456699.864 -20013431.233 10 0 60895 47700.00000 0 11384257.148 7876064.750 -21402156.398 10 0 60895 48600.00000 0 8754900.791 8514639.356 -22374302.680 10 0 60895 49500.00000 0 6090916.653 9371828.171 -22911033.398 10 0 60895 50400.00000 0 3460666.594 10434716.374 -23002003.386 10 0 60895 51300.00000 0 929499.474 11678491.917 -22645553.105 10 0 60895 52200.00000 0 -1442745.305 13067385.280 -21848732.520 10 0 60895 53100.00000 0 -3603993.300 14556087.266 -20627154.920 10 0 60895 54000.00000 0 -5511856.681 16091585.093 -19004684.156 10 0 60895 54900.00000 0 -7135143.346 17615339.534 -17012961.891 10 0 60895 55800.00000 0 -8454892.214 19065711.495 -14690784.498 10 0 60895 56700.00000 0 -9464893.483 20380536.151 -12083342.146 10 0 60895 57600.00000 0 -10171674.195 21499736.552 -9241335.121 10 0 60895 58500.00000 0 -10593951.793 22367866.987 -6219984.900 10 0 60895 59400.00000 0 -10761580.763 22936479.615 -3077959.440 10 0 60895 60300.00000 0 -10714038.386 23166215.130 123766.263 10 0 60895 61200.00000 0 -10498514.955 23028529.999 3323092.033 10 0 60895 62100.00000 0 -10167690.153 22506988.239 6457993.773 10 0 60895 63000.00000 0 -9777290.132 21598063.837 9467720.961 10 0 60895 63900.00000 0 -9383528.775 20311420.474 12293967.341 10 0 60895 64800.00000 0 -9040541.066 18669656.925 14881992.633 10 0 60895 65700.00000 0 -8797916.609 16707528.625 17181674.194 10 0 60895 66600.00000 0 -8698436.825 14470677.574 19148469.050 10 0 60895 67500.00000 0 -8776110.710 12013922.809 20744268.621 10 0 60895 68400.00000 0 -9054591.461 9399181.648 21938130.525 10 0 60895 69300.00000 0 -9546040.456 6693106.908 22706874.117 10 0 60895 70200.00000 0 -10250486.539 3964536.818 23035528.876 10 0 60895 71100.00000 0 -11155708.159 1281861.910 22917627.314 10 0 60895 72000.00000 0 -12237644.340 -1289583.338 22355336.698 10 0 60895 72900.00000 0 -13461318.611 -3689997.299 21359426.643 10 0 60895 73800.00000 0 -14782238.807 -5867354.813 19949072.398 10 0 60895 74700.00000 0 -16148215.698 -7779325.291 18151496.593 10 0 60895 75600.00000 0 -17501525.781 -9394786.132 16001455.057 10 0 60895 76500.00000 0 -18781328.780 -10694868.716 13540575.332 10 0 60895 77400.00000 0 -19926239.224 -11673493.409 10816559.437 10 0 60895 78300.00000 0 -20876944.401 -12337371.173 7882265.285 10 0 60895 79200.00000 0 -21578758.392 -12705471.675 4794683.811 10 0 60895 80100.00000 0 -21984003.930 -12807980.293 1613831.426 10 0 60895 81000.00000 0 -22054120.584 -12684788.191 -1598420.593 10 0 60895 81900.00000 0 -21761408.954 -12383579.613 -4779556.487 10 0 60895 82800.00000 0 -21090335.692 -11957597.969 -7867641.707 10 0 60895 83700.00000 0 -20038342.744 -11463186.191 -10802538.960 10 0 60895 84600.00000 0 -18616125.222 -10957206.638 -13527089.732 10 0 60895 85500.00000 0 -16847365.050 -10494451.080 -15988237.102 99